User: anonymous   Login
Location: Lynch Observatory
(39.9540°N, 75.1861°W)
Time: 19:27:32
(UTC-04:00)
Language:

First-Move - Orbit

View from above orbital plane
View from above orbital plane
View from above satellite
View from above satellite

Ground track
Ground track

The orbit data is extracted from the following two-line orbital elements,

1 39439U 13066Z   24114.87899165  .00029634  00000-0  24450-2 0  9990
2 39439  97.7192  78.9191 0046860 320.3986  39.3816 14.98082815563836
Epoch (UTC): 23 April 2024 21:05:44
Eccentricity: 0.0046860
inclination: 97.7192°
perigee height: 540 km
apogee height: 605 km
right ascension of ascending node: 78.9191°
argument of perigee: 320.3986°
revolutions per day: 14.98082815
mean anomaly at epoch: 39.3816°
orbit number at epoch: 56383

The dashed part of the orbit path shows where the satellite is in the earth's shadow,  

DLR